Torna al catalogo

STARLINK-4446

AttivoComunicazioniPO
NORAD 53505·PAYLOAD·🇺🇸 United States

Lanciato Aug 12, 2022 da Vandenberg Space Force Base

Loading…

Prossimi Passaggi (prossime 24 ore)

TLE

AggiornatoSource: CelesTrak SupGP

Epoca: Sep 14, 2026, 21:19 UTC

1 53505C 22099AS  26257.88868056  .00436150  00000+0  63274-3 0  2571
2 53505  97.5999  39.3568 0006031 248.8606 112.4194 16.05009326    11

Traccia STARLINK-4446 in tempo reale con AllMySat

Download on the App Store